Regional Weather Roundup
Issued by NWS State College, PA

Home | Current Version | Previous Version | Text Only | Print | Product List | Glossary Off
Versions: 1 2 3 4 5 6 7 8 9 10 11 12 13 14 15 16 17 18 19 20 21 22 23 24 25 26 27 28 29 30 31 32 33 34 35 36 37 38 39 40 41 42 43 44 45 46 47 48 49 50

000
ASUS41 KCTP 012103
RWRCTP

REGIONAL WEATHER ROUNDUP
NATIONAL WEATHER SERVICE STATE COLLEGE PA
500 PM EDT WED JUL 01 2015

Note: "fair" indicates few or no clouds below 12,000 feet with no
significant weather and/or obstructions to visibility.

* = STATION THAT DOES NOT REPORT PRECIPITATION /E.G. RAIN...SNOW...ETC/
    THUNDER OR FOG.

PAZ002>004-007>009-013>016-020>023-029>032-012200-
WESTERN PENNSYLVANIA

CITY           SKY/WX    TMP DP  RH WIND       PRES   REMARKS
ERIE           SUNNY     70  57  63 W9        29.89S
MEADVILLE      MOSUNNY   71  56  58 W12       29.91S
FRANKLIN*      MOSUNNY   72  55  56 NW7       29.91S
NEW CASTLE     MOCLDY    74  63  68 VRB6      29.91S
BEAVER COUNTY  CLOUDY    72  59  64 W6        29.91S
BUTLER*        PTSUNNY   72  61  68 W6        29.92S
PITTSBURGH INT MOSUNNY   75  58  55 W10       29.90F
PITTSBURGH     MOSUNNY   74  52  46 W13       29.90S
INDIANA*       PTSUNNY   73  61  64 NW9       29.93S
LATROBE        MOSUNNY   73  63  68 W16       29.91S
WASHINGTON CO* NOT AVBL
$$

PAZ004>006-010>012-017>019-024>028-033>037-041-042-045-046-049>053-012200-
CENTRAL PENNSYLVANIA

CITY           SKY/WX    TMP DP  RH WIND       PRES   REMARKS
BRADFORD       MOSUNNY   69  54  58 W14G21    29.89F
DUBOIS         PTSUNNY   74  56  53 W14G20    29.89S
CLEARFIELD     PTSUNNY   75  57  53 NW10      29.88S
JOHNSTOWN      PTSUNNY   70  56  61 W12       29.92S
ALTOONA        PTSUNNY   74  57  55 NW8       29.90S
STATE COLLEGE  PTSUNNY   73  59  60 W14       29.87R
WILLIAMSPORT   PTSUNNY   79  60  52 W14       29.80S
SELINSGROVE    MOSUNNY   78  62  57 VRB3      29.83S
FT INDIANTOWN  MOSUNNY   80  59  48 W10       29.83S
CAPITAL CITY   MOSUNNY   80  57  45 SW12      29.83S
HARRISBURG     MOSUNNY   81  58  45 W13       29.82F
YORK           SUNNY     80  61  52 W6        29.84S
$$

PAZ038>040-043-044-047-048-054-055-060>062-067>071-012200-
EASTERN PENNSYLVANIA

CITY           SKY/WX    TMP DP  RH WIND       PRES   REMARKS
SCRANTON       PTSUNNY   75  59  57 W16G24    29.81R
MOUNT POCONO   PTSUNNY   70  57  63 W13G21    29.86R
ALLENTOWN      MOSUNNY   80  60  50 W15G23    29.80S
QUAKERTOWN*    PTCLDY    79  64  61 W6        29.83R
READING        MOSUNNY   81  58  45 W14G22    29.81S
LANCASTER      SUNNY     79  59  50 W18       29.83R
COATESVILLE    CLEAR     81  63  54 W10G18    29.85S
POTTSTOWN      MOSUNNY   80  62  54 W12G21    29.83R
BLUE BELL      SUNNY     82  64  54 W10G18    29.80S
DOYLESTOWN     PTSUNNY   81  61  50 VRB6G21   29.80S
WILLOW GROVE   NOT AVBL
NORTH PHILA    MOSUNNY   86  60  41 W17       29.81S
PHILADELPHIA   MOSUNNY   86  60  41 W22G28    29.81S
$$



USA.gov is the U.S. government's official web portal to all federal, state and local government web resources and services.